When you browse on this site, cookies collect data to enhance your experience and personalize the content and advertising you see.
Visit our Privacy Policy to learn more. By continuing to use the site, you agree to this use of cookies and data.
  • In Switzerland
  • List of Countries
  • For 7 days
  • Water Temperature
  • Weather Map
  • Weather Widgets
  • user-avatar
    Login

    Hourly Weather Naftalan

    Today, 25 May, Monday

    Time Temperature Precipitation Wind Pressure Humidity
    00:00 +17°C° 0.1 mm 4 mps 768 mmHg 66%
    01:00 +17°C° 0 mm 4 mps 768 mmHg 67%
    02:00 +17°C° 0 mm 4 mps 768 mmHg 68%
    03:00 +16°C° 0 mm 5 mps 768 mmHg 69%
    04:00 +16°C° 0 mm 5 mps 769 mmHg 67%
    05:00 +17°C° 0 mm 5 mps 769 mmHg 64%
    06:00 +17°C° 0 mm 6 mps 769 mmHg 61%
    07:00 +19°C° 0 mm 6 mps 769 mmHg 56%
    08:00 +20°C° 0 mm 6 mps 769 mmHg 50%
    09:00 +21°C° 0 mm 6 mps 768 mmHg 43%
    10:00 +21°C° 0 mm 6 mps 768 mmHg 45%
    11:00 +21°C° 0 mm 6 mps 767 mmHg 46%
    12:00 +22°C° 0 mm 6 mps 767 mmHg 48%
    13:00 +21°C° 0 mm 6 mps 766 mmHg 51%
    14:00 +21°C° 0 mm 6 mps 765 mmHg 53%
    15:00 +21°C° 0 mm 6 mps 764 mmHg 56%
    16:00 +20°C° 0 mm 5 mps 764 mmHg 59%
    17:00 +20°C° 0 mm 4 mps 764 mmHg 63%
    18:00 +19°C° 0 mm 3 mps 763 mmHg 66%
    19:00 +18°C° 0 mm 2 mps 763 mmHg 68%
    20:00 +18°C° 0 mm 2 mps 763 mmHg 71%
    21:00 +18°C° 0 mm 1 mps 763 mmHg 74%
    22:00 +18°C° 0 mm 1 mps 763 mmHg 75%
    23:00 +17°C° 0 mm 2 mps 762 mmHg 76%

    Tomorrow, 26 May, Tuesday

    Time Temperature Precipitation Wind Pressure Humidity
    00:00 +16°C° 0 mm 2 mps 762 mmHg 78%
    01:00 +16°C° 0 mm 3 mps 762 mmHg 78%
    02:00 +16°C° 0 mm 3 mps 762 mmHg 79%
    03:00 +14°C° 0 mm 4 mps 762 mmHg 80%
    04:00 +15°C° 0 mm 5 mps 762 mmHg 75%
    05:00 +16°C° 0 mm 6 mps 763 mmHg 70%
    06:00 +17°C° 0 mm 7 mps 763 mmHg 64%
    07:00 +20°C° 0 mm 7 mps 764 mmHg 59%
    08:00 +22°C° 0 mm 7 mps 764 mmHg 54%
    09:00 +24°C° 0 mm 6 mps 764 mmHg 49%
    10:00 +26°C° 0 mm 6 mps 765 mmHg 47%
    11:00 +27°C° 0 mm 6 mps 765 mmHg 45%
    12:00 +27°C° 0 mm 5 mps 765 mmHg 43%
    13:00 +26°C° 0 mm 6 mps 765 mmHg 46%
    14:00 +24°C° 0 mm 6 mps 765 mmHg 49%
    15:00 +23°C° 0 mm 6 mps 765 mmHg 53%
    16:00 +23°C° 0 mm 5 mps 765 mmHg 54%
    17:00 +22°C° 0 mm 4 mps 766 mmHg 56%
    18:00 +22°C° 0 mm 3 mps 766 mmHg 58%
    19:00 +21°C° 0 mm 3 mps 767 mmHg 62%
    20:00 +20°C° 0 mm 3 mps 767 mmHg 65%
    21:00 +19°C° 0 mm 2 mps 768 mmHg 69%
    22:00 +19°C° 0 mm 2 mps 768 mmHg 69%
    23:00 +20°C° 0 mm 1 mps 768 mmHg 70%

    Day after tomorrow, 27 May, Wednesday

    Time Temperature Precipitation Wind Pressure Humidity
    00:00 +20°C° 0 mm 1 mps 768 mmHg 71%
    01:00 +19°C° 0 mm 1 mps 767 mmHg 71%
    02:00 +19°C° 0 mm 1 mps 767 mmHg 71%
    03:00 +19°C° 0 mm 1 mps 767 mmHg 71%
    04:00 +20°C° 0 mm 1 mps 767 mmHg 68%
    05:00 +20°C° 0 mm 1 mps 768 mmHg 66%
    06:00 +21°C° 0 mm 1 mps 768 mmHg 63%
    07:00 +22°C° 0 mm 1 mps 768 mmHg 58%
    08:00 +23°C° 0 mm 1 mps 768 mmHg 54%
    09:00 +24°C° 0 mm 1 mps 768 mmHg 49%
    10:00 +25°C° 0 mm 2 mps 768 mmHg 47%
    11:00 +26°C° 0 mm 2 mps 767 mmHg 45%
    12:00 +27°C° 0 mm 3 mps 767 mmHg 43%
    13:00 +26°C° 0 mm 3 mps 766 mmHg 44%
    14:00 +26°C° 0 mm 4 mps 766 mmHg 45%
    15:00 +26°C° 0 mm 4 mps 766 mmHg 45%
    16:00 +25°C° 0 mm 4 mps 765 mmHg 51%
    17:00 +23°C° 0 mm 4 mps 765 mmHg 56%
    18:00 +22°C° 0 mm 4 mps 765 mmHg 61%
    19:00 +21°C° 0 mm 4 mps 765 mmHg 66%
    20:00 +21°C° 0 mm 4 mps 766 mmHg 71%
    21:00 +20°C° 0 mm 3 mps 766 mmHg 76%
    22:00 +20°C° 0 mm 3 mps 765 mmHg 77%
    23:00 +19°C° 0 mm 3 mps 765 mmHg 78%

    28 May, Thursday

    Time Temperature Precipitation Wind Pressure Humidity
    00:00 +19°C° 0 mm 2 mps 765 mmHg 80%
    01:00 +19°C° 0 mm 2 mps 764 mmHg 81%
    02:00 +18°C° 0 mm 2 mps 764 mmHg 82%
    03:00 +18°C° 0 mm 2 mps 764 mmHg 83%
    04:00 +19°C° 0 mm 2 mps 764 mmHg 80%
    05:00 +20°C° 0 mm 2 mps 764 mmHg 77%
    06:00 +20°C° 0 mm 2 mps 764 mmHg 74%
    07:00 +23°C° 0 mm 2 mps 764 mmHg 67%
    08:00 +24°C° 0 mm 2 mps 764 mmHg 61%
    09:00 +26°C° 0 mm 3 mps 764 mmHg 55%
    10:00 +26°C° 0 mm 3 mps 763 mmHg 53%
    11:00 +27°C° 0 mm 4 mps 763 mmHg 52%
    12:00 +28°C° 0 mm 4 mps 762 mmHg 50%
    13:00 +28°C° 0 mm 5 mps 762 mmHg 51%
    14:00 +27°C° 0 mm 5 mps 761 mmHg 53%
    15:00 +27°C° 0 mm 6 mps 761 mmHg 54%
    16:00 +26°C° 0 mm 5 mps 761 mmHg 58%
    17:00 +25°C° 0 mm 5 mps 760 mmHg 63%
    18:00 +23°C° 0 mm 5 mps 760 mmHg 68%
    19:00 +22°C° 0 mm 4 mps 760 mmHg 70%
    20:00 +22°C° 0 mm 4 mps 761 mmHg 72%
    21:00 +22°C° 0 mm 3 mps 761 mmHg 74%
    22:00 +21°C° 0 mm 3 mps 760 mmHg 75%
    23:00 +21°C° 0 mm 4 mps 760 mmHg 77%

    29 May, Friday

    Time Temperature Precipitation Wind Pressure Humidity
    00:00 +21°C° 0 mm 4 mps 760 mmHg 79%
    01:00 +20°C° 0 mm 3 mps 759 mmHg 80%
    02:00 +20°C° 0 mm 3 mps 759 mmHg 82%
    03:00 +20°C° 0 mm 3 mps 759 mmHg 83%
    04:00 +21°C° 0 mm 3 mps 759 mmHg 81%
    05:00 +21°C° 0 mm 3 mps 759 mmHg 78%
    06:00 +22°C° 0 mm 3 mps 759 mmHg 76%
    07:00 +24°C° 0 mm 3 mps 759 mmHg 71%
    08:00 +26°C° 0 mm 3 mps 758 mmHg 65%
    09:00 +27°C° 0 mm 4 mps 758 mmHg 60%
    10:00 +27°C° 0 mm 4 mps 758 mmHg 59%
    11:00 +28°C° 0 mm 5 mps 757 mmHg 57%
    12:00 +28°C° 0 mm 5 mps 757 mmHg 56%
    13:00 +27°C° 0.2 mm 6 mps 757 mmHg 59%
    14:00 +27°C° 0.2 mm 7 mps 756 mmHg 62%
    15:00 +26°C° 0.2 mm 7 mps 756 mmHg 66%
    16:00 +26°C° 0.1 mm 6 mps 755 mmHg 66%
    17:00 +26°C° 0.1 mm 4 mps 755 mmHg 66%
    18:00 +26°C° 0.1 mm 2 mps 755 mmHg 67%
    19:00 +25°C° 0 mm 3 mps 755 mmHg 69%
    20:00 +23°C° 0 mm 4 mps 755 mmHg 72%
    21:00 +23°C° 0 mm 5 mps 755 mmHg 75%
    22:00 +22°C° 0 mm 4 mps 755 mmHg 76%
    23:00 +22°C° 0 mm 4 mps 755 mmHg 78%

    30 May, Saturday

    Time Temperature Precipitation Wind Pressure Humidity
    00:00 +22°C° 0 mm 3 mps 755 mmHg 79%
    01:00 +21°C° 0 mm 3 mps 755 mmHg 80%
    02:00 +21°C° 0 mm 2 mps 755 mmHg 81%
    03:00 +22°C° 0 mm 1 mps 755 mmHg 82%
    04:00 +21°C° 0 mm 3 mps 756 mmHg 78%
    05:00 +22°C° 0 mm 5 mps 757 mmHg 74%
    06:00 +23°C° 0 mm 6 mps 757 mmHg 70%
    07:00 +24°C° 0 mm 6 mps 758 mmHg 64%
    08:00 +27°C° 0 mm 5 mps 758 mmHg 57%
    09:00 +28°C° 0 mm 4 mps 759 mmHg 51%
    10:00 +29°C° 0 mm 5 mps 759 mmHg 50%
    11:00 +30°C° 0 mm 5 mps 759 mmHg 48%
    12:00 +32°C° 0 mm 5 mps 760 mmHg 47%
    13:00 +30°C° 0 mm 7 mps 760 mmHg 49%
    14:00 +29°C° 0 mm 9 mps 760 mmHg 52%
    15:00 +28°C° 0 mm 10 mps 760 mmHg 54%
    16:00 +27°C° 0 mm 9 mps 760 mmHg 58%
    17:00 +26°C° 0 mm 7 mps 761 mmHg 61%
    18:00 +24°C° 0 mm 6 mps 761 mmHg 65%
    19:00 +23°C° 0 mm 5 mps 762 mmHg 67%
    20:00 +23°C° 0 mm 4 mps 762 mmHg 69%
    21:00 +22°C° 0 mm 4 mps 763 mmHg 71%
    22:00 +22°C° 0 mm 4 mps 763 mmHg 71%
    23:00 +22°C° 0 mm 5 mps 764 mmHg 70%
    Show more